Tracking 35334 objects as of 12-Sep-2026
HD Live streaming from Space Station
objects crossing your sky now

ARIANE 5 DEB (SYLDA)


ARIANE 5 DEB (SYLDA) is no longer on orbit


NORAD ID: 40666
Int'l Code: 2015-026D
Launch date: May 27, 2015
Source: France (FR)
Launch site: FRENCH GUIANA (FRGUI)
Decay date: 2022-02-07

Note: This is SATELLITE DEBRIS
Your satellite tracking list
Your tracking list is empty




NASA's NSSDC Master Catalog

Two Line Element Set (TLE):
1 40666U 15026D   22038.09570567  .34467622 -31490-4  16334-2 0  9995
2 40666   3.8593  12.4244 0417290 200.1635 188.1111 15.52418785 84187
Source of the keplerian elements: AFSPC